Temp
35 33 33 32 31 31 31 31 33 32 32 33 33 32 30 28 28 28 27 26 27 25
34 34 33 33 32 31 32 35 35 32 31 32 32 31 29 27 27 27 27 27 25 24
34 34 34 33 32 32 32 32 32 32 32 32 31 30 28 27 28 27 28 28 26 26
34 34 34 33 33 32 32 33 33 33 32 32 31 29 28 27 29 28 27 27 26 27
34 34 33 33 33 32 31 33 33 33 32 32 30 29 28 28 28 28 27 26 26 28
33 33 32 31 31 32 32 32 32 32 30 30 30 30 28 29 28 28 28 27 27 27
32 32 31 31 31 31 31 30 30 30 30 30 30 31 31 31 29 29 29 28 27 27
34 34 32 31 30 29 29 29 29 29 29 28 29 32 31 31 29 29 28 28 29 29
35 34 31 30 29 28 28 27 27 27 27 26 30 33 34 33 30 28 28 27 28 29
35 33 31 30 29 28 26 25 25 26 26 26 26 33 34 34 30 28 28 28 28 28
34 32 31 30 28 27 26 24 25 26 27 26 29 33 34 33 29 28 29 28 29 28
33 32 31 30 27 26 25 25 27 28 28 26 28 33 33 31 29 29 28 30 29 29
33 32 30 28 27 26 25 28 29 29 29 31 28 32 33 31 29 26 27 28 29 30
33 32 31 28 28 26 28 26 28 29 29 30 30 29 33 33 28 26 26 27 26 27
MSLP
1030.19 1029.97 1029.67 1029.37 1028.94 1028.42 1027.87 1027.19 1026.34 1025.82 1025.28 1024.71 1024.24 1023.90 1023.68 1023.55 1023.25 1023.03 1022.75 1022.35 1021.91 1021.54
1030.34 1030.06 1029.74 1029.28 1028.75 1028.27 1027.53 1026.76 1026.00 1025.54 1025.06 1024.43 1023.97 1023.64 1023.56 1023.47 1023.22 1022.81 1022.30 1021.81 1021.30 1020.94
1030.48 1030.00 1029.63 1029.17 1028.68 1028.08 1027.39 1026.69 1026.01 1025.34 1024.78 1024.23 1023.73 1023.56 1023.57 1023.43 1022.98 1022.50 1021.84 1021.30 1020.77 1020.27
1030.52 1030.12 1029.68 1029.22 1028.58 1028.02 1027.34 1026.58 1025.96 1025.29 1024.71 1024.23 1023.86 1023.76 1023.62 1023.21 1022.64 1022.09 1021.39 1020.78 1020.29 1019.67
1030.65 1030.27 1029.87 1029.39 1028.72 1028.09 1027.49 1026.72 1026.12 1025.47 1024.89 1024.41 1024.09 1023.82 1023.46 1022.95 1022.27 1021.59 1020.94 1020.33 1019.79 1019.07
1030.86 1030.55 1030.18 1029.71 1029.06 1028.29 1027.69 1027.06 1026.42 1025.84 1025.31 1024.77 1024.27 1023.71 1023.21 1022.58 1021.81 1021.10 1020.54 1019.95 1019.34 1018.67
1031.11 1030.82 1030.46 1029.94 1029.27 1028.69 1028.09 1027.49 1026.86 1026.24 1025.65 1025.05 1024.33 1023.59 1022.96 1022.13 1021.40 1020.62 1020.04 1019.47 1018.88 1018.20
1031.26 1031.01 1030.68 1030.17 1029.65 1029.10 1028.44 1027.83 1027.25 1026.57 1025.83 1025.24 1024.46 1023.55 1022.58 1021.83 1021.01 1020.21 1019.55 1018.94 1018.30 1017.64
1031.43 1031.17 1030.87 1030.41 1029.91 1029.30 1028.66 1028.09 1027.51 1026.76 1026.08 1025.29 1024.49 1023.45 1022.36 1021.45 1020.63 1019.97 1019.25 1018.52 1017.76 1017.12
1031.58 1031.36 1031.01 1030.57 1030.08 1029.52 1028.89 1028.30 1027.67 1026.92 1026.16 1025.35 1024.53 1023.33 1022.04 1021.08 1020.41 1019.76 1019.02 1018.26 1017.52 1016.71
1031.75 1031.51 1031.14 1030.68 1030.30 1029.76 1029.13 1028.53 1027.86 1027.06 1026.24 1025.44 1024.51 1023.30 1022.00 1021.01 1020.32 1019.54 1018.75 1018.04 1017.27 1016.52
1031.93 1031.66 1031.36 1030.98 1030.56 1030.00 1029.41 1028.71 1027.93 1027.19 1026.30 1025.52 1024.55 1023.41 1022.18 1021.20 1020.35 1019.48 1018.69 1017.82 1017.15 1016.38
1032.11 1031.87 1031.64 1031.27 1030.78 1030.36 1029.71 1029.00 1028.14 1027.23 1026.40 1025.63 1024.74 1023.73 1022.42 1021.48 1020.63 1019.74 1018.83 1017.90 1017.08 1016.24
1032.42 1032.10 1031.83 1031.45 1031.07 1030.61 1029.94 1029.20 1028.26 1027.43 1026.59 1025.80 1025.03 1024.09 1022.86 1021.77 1021.03 1020.22 1019.27 1018.33 1017.30 1016.41
Wind_Speed
6 3 3 4 4 5 4 5 6 7 6 7 7 6 5 4 4 5 5 8 9 7
5 6 5 7 5 4 6 6 7 8 7 8 7 6 6 3 5 6 7 9 9 7
5 6 6 6 7 7 7 7 8 8 8 7 7 5 4 4 7 8 9 7 9 9
6 6 7 6 7 7 7 8 9 8 8 7 6 5 5 6 9 11 11 10 9 11
6 6 7 7 9 8 8 8 9 9 8 7 5 6 6 9 10 12 12 11 10 11
7 7 7 8 8 9 9 9 10 9 9 8 6 6 6 9 11 11 11 11 11 11
7 6 7 7 8 9 9 9 9 9 9 9 11 8 11 12 12 12 10 11 10 10
6 6 7 7 8 8 9 9 9 9 10 10 10 8 14 14 12 12 12 11 11 9
6 6 6 7 7 7 9 9 9 10 10 11 9 22 25 21 12 12 12 11 11 10
5 5 6 6 6 8 9 8 9 10 10 12 11 25 27 28 11 11 11 11 11 11
5 5 6 6 7 7 6 7 8 9 11 11 10 25 28 27 13 11 13 11 11 11
5 6 6 7 8 6 7 8 9 10 11 11 12 25 28 21 13 14 13 11 11 12
6 6 7 7 7 5 5 9 9 11 11 16 13 23 29 23 11 13 11 12 12 20
7 6 6 6 5 6 9 8 10 11 11 12 15 16 30 30 13 11 11 10 11 11
Wind_Direction
14 352 331 315 312 304 292 293 292 301 300 293 292 292 299 291 288 284 278 279 286 278
353 351 330 325 315 296 298 303 303 302 298 296 293 295 312 314 308 296 285 289 283 273
338 333 332 326 323 316 311 308 308 308 307 306 304 326 357 319 303 298 303 295 292 288
346 341 336 331 324 322 312 322 323 317 313 318 334 11 336 315 310 313 308 304 298 293
356 345 345 336 331 329 328 330 331 332 336 340 358 338 322 314 310 313 313 307 301 300
352 355 344 338 331 337 341 339 341 345 344 337 327 320 310 307 307 309 311 305 301 301
352 353 349 338 343 348 342 343 344 342 340 340 327 307 332 324 320 311 311 305 299 294
354 4 355 346 347 339 345 344 339 339 340 339 336 335 336 337 324 323 316 309 303 297
2 5 351 341 337 340 344 342 338 341 340 335 337 339 341 343 336 324 317 312 312 307
359 358 347 336 339 343 340 333 336 332 334 332 326 344 345 346 337 325 321 318 313 311
357 349 340 336 341 334 330 333 333 329 331 330 328 343 351 350 338 333 333 323 323 315
356 345 337 340 336 326 331 335 336 333 331 334 340 346 356 356 344 339 336 334 331 337
354 346 341 336 334 318 321 339 334 336 342 343 343 349 358 3 346 342 338 334 337 340
357 342 345 335 347 336 348 334 345 348 348 350 357 352 359 1 356 350 340 340 337 337